Temp_Advection
nan nan nan nan nan nan nan nan nan nan nan nan nan nan nan nan nan nan nan nan nan nan
nan -0 0 0 0 -0 -0 0 0 -0 -0 -0 -0 -0 -0 0 0 -0 -0 -0 -0 nan
nan 0 0 0 0 0 0 0 0 -0 -0 -0 -0 0 0 0 0 -0 -0 -0 -0 nan
nan -0 -0 -0 0 1 1 0 -0 -0 0 -0 0 0 0 0 -0 -0 -0 -0 -0 nan
nan -0 -0 -0 -0 0 0 0 -0 -0 -0 -0 0 0 0 -0 -0 -0 -0 -0 -0 nan
nan -0 -0 -0 -0 -0 -0 -0 -0 -0 -0 -0 0 0 -0 -0 -0 -0 -0 -0 -0 nan
nan -0 -0 -0 0 -0 -0 -0 -0 -0 -0 -0 0 -0 -0 -0 -0 -0 -0 -0 -0 nan
nan -0 -0 -0 -0 -0 -0 -0 -0 0 -0 -0 -0 -0 -0 -0 -0 -0 -0 -0 -0 nan
nan -0 -0 -0 -0 -0 -0 0 0 -0 -0 -0 -0 0 1 0 0 -0 -0 -0 0 nan
nan -0 -0 0 -0 -0 -0 -0 -0 -0 -0 -0 1 1 1 1 0 0 0 1 1 nan
nan -0 -0 -0 -0 -0 -0 -0 -0 -0 -0 0 1 0 0 0 0 1 1 1 1 nan
nan -0 -0 -0 -0 -0 0 -0 0 0 0 0 -0 0 0 0 -0 0 0 0 0 nan
nan -0 -0 -0 0 0 0 0 0 0 0 0 0 0 0 -0 -0 -0 0 0 0 nan
nan nan nan nan nan nan nan nan nan nan nan nan nan nan nan nan nan nan nan nan nan nan
Wind_Speed
30 32 28 24 23 22 23 23 26 26 25 21 23 26 25 19 17 18 18 19 16 15
29 31 29 26 23 22 22 23 26 25 24 22 25 25 24 21 18 18 19 18 18 16
27 30 28 27 26 24 23 25 26 25 23 22 24 27 25 21 19 18 18 18 20 18
26 29 28 27 27 27 24 25 26 25 22 23 27 28 24 21 20 19 21 20 19 19
26 28 27 27 27 27 26 24 26 26 24 24 28 29 25 22 20 20 21 21 21 22
26 28 26 25 26 27 26 26 25 25 25 26 30 29 25 22 21 19 19 21 21 22
26 27 24 24 24 26 25 26 26 25 24 25 29 29 25 21 21 21 19 20 18 19
25 24 22 22 23 24 25 26 26 25 25 26 27 29 26 23 21 21 21 21 21 22
23 23 22 21 22 23 24 25 26 26 26 26 26 27 25 22 22 22 21 22 23 22
22 22 21 20 20 22 24 23 25 26 25 26 26 27 25 24 23 22 22 23 25 26
20 21 20 20 20 20 22 23 24 25 25 24 26 27 26 25 25 24 24 25 25 27
20 20 20 21 21 20 19 21 21 23 24 25 25 26 27 28 28 26 25 25 25 27
19 20 21 21 20 18 19 20 19 20 23 25 24 25 26 28 29 29 27 26 25 26
17 19 20 21 21 18 18 20 21 22 23 23 25 26 25 27 29 28 27 27 27 25
Wind_Direction
357 -0 2 2 2 3 1 359 359 1 2 1 358 355 2 21 19 21 16 19 14 10
357 0 4 6 6 3 1 360 1 2 3 6 360 6 17 21 20 17 16 12 19 13
358 1 4 8 9 5 2 3 5 7 6 7 10 15 18 17 21 15 15 16 19 16
359 2 5 9 10 8 6 7 9 12 8 13 17 18 19 19 20 19 16 20 16 20
360 3 7 10 12 13 12 13 14 16 19 22 23 18 18 21 20 21 17 15 18 18
2 6 7 11 14 15 15 17 17 18 21 28 27 17 19 23 22 20 20 15 16 15
4 5 7 12 16 16 17 18 20 21 23 29 28 18 18 25 25 26 22 19 19 18
3 6 10 16 17 19 20 19 20 22 26 30 28 20 17 26 28 27 22 21 21 23
5 10 13 16 19 20 21 20 21 24 27 30 27 20 20 28 29 28 24 20 19 21
11 14 16 15 18 21 21 20 21 25 28 30 30 26 27 26 31 29 26 24 20 21
18 18 18 16 19 22 20 21 21 22 28 28 30 29 31 31 33 32 29 26 25 23
23 20 21 22 18 20 22 23 23 22 25 28 29 30 29 32 34 34 30 28 26 25
27 26 25 24 23 21 24 26 28 26 27 28 27 28 28 30 33 31 30 30 30 31
33 31 30 27 26 28 30 31 34 34 30 31 29 27 28 30 32 30 29 28 30 30
Height
1552 1545 1537 1531 1525 1520 1514 1508 1503 1498 1493 1488 1483 1477 1471 1467 1463 1460 1456 1454 1452 1450
1551 1545 1537 1532 1526 1521 1515 1510 1504 1498 1494 1488 1484 1478 1471 1468 1464 1462 1458 1454 1451 1448
1551 1545 1538 1532 1527 1521 1516 1510 1505 1499 1495 1490 1485 1480 1474 1470 1467 1464 1461 1457 1452 1449
1551 1545 1538 1533 1527 1522 1517 1511 1506 1500 1496 1491 1487 1482 1477 1472 1469 1465 1462 1460 1455 1451
1551 1545 1539 1534 1529 1523 1518 1513 1508 1502 1497 1493 1489 1485 1480 1475 1471 1467 1463 1462 1458 1455
1551 1545 1540 1535 1530 1525 1520 1515 1510 1505 1500 1495 1491 1486 1482 1478 1474 1471 1467 1463 1459 1456
1550 1545 1540 1536 1532 1527 1522 1517 1512 1508 1503 1498 1493 1489 1484 1481 1477 1473 1471 1467 1463 1458
1551 1546 1541 1537 1533 1529 1524 1519 1515 1511 1506 1501 1497 1492 1487 1483 1480 1476 1472 1469 1464 1461
1552 1547 1543 1539 1535 1531 1527 1522 1517 1513 1508 1504 1500 1496 1490 1485 1481 1479 1476 1471 1468 1464
1552 1548 1544 1540 1536 1533 1529 1525 1520 1516 1511 1507 1503 1499 1494 1489 1484 1480 1477 1473 1468 1463
1554 1550 1546 1542 1537 1534 1531 1527 1523 1519 1515 1510 1506 1502 1498 1493 1488 1483 1479 1475 1471 1466
1556 1552 1548 1544 1539 1536 1533 1529 1526 1522 1518 1513 1509 1505 1501 1497 1491 1486 1483 1478 1474 1469
1557 1554 1550 1547 1543 1538 1535 1531 1528 1525 1521 1517 1512 1508 1504 1500 1496 1491 1486 1483 1479 1474
1559 1556 1552 1549 1545 1541 1538 1534 1531 1527 1524 1520 1516 1511 1507 1503 1499 1495 1491 1485 1481 1478